CW2972 Weather Reports


time (UTC)temp
C
wind
direction
speed
KPH
gust
KPH
rain 1hr
cm
rain 24hr
cm
rain mn
cm
humidity
%
barometer
mb
20260510151619 26 227 1.6 4.8 0.00 0.00 0.00 57 1016.4
20260510151419 26 217 1.6 4.8 0.00 0.00 0.00 59 1016.4
20260510151219 26 210 1.6 4.8 0.00 0.00 0.00 61 1016.4
20260510151020 26 209 1.6 4.8 0.00 0.00 0.00 61 1016.4
20260510150819 26 211 1.6 6.4 0.00 0.00 0.00 61 1016.4
20260510150619 26 216 1.6 6.4 0.00 0.00 0.00 62 1016.4
20260510150419 25 219 1.6 6.4 0.00 0.00 0.00 63 1016.4
20260510150219 25 221 1.6 6.4 0.00 0.00 0.00 64 1016.4
20260510150040 25 218 1.6 6.4 0.00 0.00 0.00 66 1016.4
20260510145819 25 217 1.6 6.4 0.00 0.00 0.00 64 1016.4
20260510145619 24 213 1.6 4.8 0.00 0.00 0.00 66 1016.4
20260510145420 23 221 0.0 4.8 0.00 0.00 0.00 67 1016.4
20260510145219 23 221 0.0 4.8 0.00 0.00 0.00 67 1016.5
20260510145040 23 226 0.0 3.2 0.00 0.00 0.00 69 1016.5
20260510144840 23 226 0.0 3.2 0.00 0.00 0.00 70 1016.5
20260510144640 22 229 0.0 3.2 0.00 0.00 0.00 69 1016.5
20260510144419 22 215 0.0 3.2 0.00 0.00 0.00 70 1016.5
20260510144240 22 211 0.0 1.6 0.00 0.00 0.00 71 1016.5
20260510144019 22 215 0.0 1.6 0.00 0.00 0.00 72 1016.5
20260510143819 22 213 0.0 1.6 0.00 0.00 0.00 72 1016.5
20260510143619 21 219 0.0 1.6 0.00 0.00 0.00 72 1016.5
20260510143419 21 219 0.0 1.6 0.00 0.00 0.00 72 1016.4
20260510143219 21 219 0.0 1.6 0.00 0.00 0.00 71 1016.4
20260510143019 21 220 0.0 4.8 0.00 0.00 0.00 71 1016.5
20260510142819 21 220 0.0 4.8 0.00 0.00 0.00 72 1016.5
20260510142619 21 217 0.0 4.8 0.00 0.00 0.00 72 1016.4
20260510142419 21 218 0.0 4.8 0.00 0.00 0.00 71 1016.4
20260510142219 21 221 0.0 4.8 0.00 0.00 0.00 71 1016.5
20260510142019 21 222 0.0 3.2 0.00 0.00 0.00 71 1016.5
20260510141819 21 222 0.0 3.2 0.00 0.00 0.00 71 1016.5
20260510141619 21 224 0.0 3.2 0.00 0.00 0.00 71 1016.4
20260510141419 21 227 0.0 3.2 0.00 0.00 0.00 71 1016.4
20260510141219 21 222 0.0 1.6 0.00 0.00 0.00 71 1016.5
20260510141019 21 227 0.0 3.2 0.00 0.00 0.00 71 1016.5
20260510140819 21 221 0.0 3.2 0.00 0.00 0.00 71 1016.5
20260510140619 21 221 0.0 3.2 0.00 0.00 0.00 71 1016.5
20260510140419 21 222 0.0 3.2 0.00 0.00 0.00 70 1016.4
20260510140240 22 223 0.0 3.2 0.00 0.00 0.00 70 1016.5
20260510140019 22 221 0.0 3.2 0.00 0.00 0.00 71 1016.5
20260510135819 22 225 0.0 3.2 0.00 0.00 0.00 71 1016.5
20260510135619 22 227 0.0 3.2 0.00 0.00 0.00 72 1016.5
20260510135419 22 225 0.0 3.2 0.00 0.00 0.00 72 1016.5
20260510135220 21 222 0.0 3.2 0.00 0.00 0.00 72 1016.5
20260510135019 21 0 0.0 0.0 0.00 0.00 0.00 73 1016.5
20260510134819 21 0 0.0 0.0 0.00 0.00 0.00 73 1016.4
20260510134619 21 0 0.0 0.0 0.00 0.00 0.00 76 1016.4
20260510134419 21 0 0.0 0.0 0.00 0.00 0.00 77 1016.4
20260510134219 20 0 0.0 0.0 0.00 0.00 0.00 77 1016.5
20260510134019 20 0 0.0 0.0 0.00 0.00 0.00 77 1016.4
20260510133819 20 0 0.0 0.0 0.00 0.00 0.00 76 1016.4
20260510133619 20 0 0.0 0.0 0.00 0.00 0.00 76 1016.4
20260510133419 20 0 0.0 0.0 0.00 0.00 0.00 77 1016.4
20260510133219 20 0 0.0 0.0 0.00 0.00 0.00 77 1016.4
20260510133019 20 0 0.0 0.0 0.00 0.00 0.00 78 1016.4
20260510132819 20 0 0.0 0.0 0.00 0.00 0.00 78 1016.4
20260510132619 20 0 0.0 0.0 0.00 0.00 0.00 78 1016.4
20260510132419 20 0 0.0 0.0 0.00 0.00 0.00 78 1016.4
20260510132219 20 0 0.0 0.0 0.00 0.00 0.00 79 1016.4
20260510132019 20 0 0.0 0.0 0.00 0.00 0.00 79 1016.4
20260510131819 19 0 0.0 0.0 0.00 0.00 0.00 79 1016.5
20260510131619 19 0 0.0 0.0 0.00 0.00 0.00 78 1016.5
20260510131419 19 0 0.0 0.0 0.00 0.00 0.00 78 1016.5
20260510131219 19 0 0.0 0.0 0.00 0.00 0.00 79 1016.4
20260510131020 19 0 0.0 0.0 0.00 0.00 0.00 79 1016.4
20260510130840 18 0 0.0 0.0 0.00 0.00 0.00 79 1016.4
20260510130619 18 0 0.0 0.0 0.00 0.00 0.00 81 1016.4
20260510130419 18 0 0.0 0.0 0.00 0.00 0.00 81 1016.5
20260510130219 18 0 0.0 0.0 0.00 0.00 0.00 82 1016.4
20260510130040 18 0 0.0 0.0 0.00 0.00 0.00 83 1016.4
20260510125819 18 0 0.0 0.0 0.00 0.00 0.00 83 1016.4
20260510125640 17 0 0.0 0.0 0.00 0.00 0.00 84 1016.3
20260510125420 17 0 0.0 0.0 0.00 0.00 0.00 84 1016.3
20260510125219 17 0 0.0 0.0 0.00 0.00 0.00 85 1016.3
20260510125019 17 0 0.0 0.0 0.00 0.00 0.00 85 1016.3
20260510124819 17 0 0.0 0.0 0.00 0.00 0.00 85 1016.2
20260510124619 16 0 0.0 0.0 0.00 0.00 0.00 85 1016.2
20260510124419 16 0 0.0 0.0 0.00 0.00 0.00 86 1016.2
20260510124219 16 0 0.0 0.0 0.00 0.00 0.00 86 1016.1
20260510124019 16 0 0.0 0.0 0.00 0.00 0.00 86 1016.0
20260510123819 16 0 0.0 0.0 0.00 0.00 0.00 86 1016.0
20260510123619 16 0 0.0 0.0 0.00 0.00 0.00 87 1016.1
20260510123419 16 0 0.0 0.0 0.00 0.00 0.00 87 1016.0
20260510123219 15 0 0.0 0.0 0.00 0.00 0.00 87 1015.8
20260510123040 15 0 0.0 0.0 0.00 0.00 0.00 87 1015.7
20260510122840 15 0 0.0 0.0 0.00 0.00 0.00 87 1015.7
20260510122619 15 0 0.0 0.0 0.00 0.00 0.00 87 1015.6
20260510122419 15 0 0.0 0.0 0.00 0.00 0.00 88 1015.6
20260510122220 15 0 0.0 0.0 0.00 0.00 0.00 88 1015.7
20260510122019 15 0 0.0 0.0 0.00 0.00 0.00 88 1015.7
20260510121819 15 0 0.0 0.0 0.00 0.00 0.00 88 1015.8
20260510121619 15 0 0.0 0.0 0.00 0.00 0.00 88 1015.8
20260510121440 14 0 0.0 0.0 0.00 0.00 0.00 88 1015.8
20260510121219 14 0 0.0 0.0 0.00 0.00 0.00 89 1015.8
20260510121019 14 0 0.0 0.0 0.00 0.00 0.00 89 1015.8
20260510120819 14 0 0.0 0.0 0.00 0.00 0.00 89 1015.8
20260510120640 14 0 0.0 0.0 0.00 0.00 0.00 89 1015.8
20260510120419 13 0 0.0 0.0 0.00 0.00 0.00 89 1015.8
20260510120219 13 0 0.0 0.0 0.00 0.00 0.00 89 1015.8
20260510120020 13 0 0.0 0.0 0.00 0.00 0.00 90 1015.8
20260510115819 13 0 0.0 0.0 0.00 0.00 0.00 90 1015.8
20260510115619 13 0 0.0 0.0 0.00 0.00 0.00 90 1015.8
20260510115419 13 188 0.0 1.6 0.00 0.00 0.00 90 1015.8
20260510115219 13 188 0.0 1.6 0.00 0.00 0.00 90 1015.8
20260510115020 13 188 0.0 1.6 0.00 0.00 0.00 90 1015.8
20260510114819 13 188 0.0 1.6 0.00 0.00 0.00 90 1015.8
20260510114619 13 188 0.0 1.6 0.00 0.00 0.00 90 1015.7
20260510114419 13 0 0.0 0.0 0.00 0.00 0.00 89 1015.7
20260510114219 13 0 0.0 0.0 0.00 0.00 0.00 89 1015.7
20260510114019 13 0 0.0 0.0 0.00 0.00 0.00 89 1015.7
20260510113819 13 0 0.0 0.0 0.00 0.00 0.00 89 1015.6
20260510113619 13 0 0.0 0.0 0.00 0.00 0.00 89 1015.6
20260510113419 13 0 0.0 0.0 0.00 0.00 0.00 89 1015.6
20260510113219 12 0 0.0 0.0 0.00 0.00 0.00 89 1015.7
20260510113019 12 0 0.0 0.0 0.00 0.00 0.00 89 1015.7
20260510112840 12 0 0.0 0.0 0.00 0.00 0.00 89 1015.7
20260510112619 12 0 0.0 0.0 0.00 0.00 0.00 90 1015.8
20260510112419 12 167 0.0 3.2 0.00 0.00 0.00 90 1015.7
20260510112219 12 167 0.0 3.2 0.00 0.00 0.00 90 1015.6
20260510112019 12 167 0.0 3.2 0.00 0.00 0.00 90 1015.8
20260510111819 12 167 0.0 3.2 0.00 0.00 0.00 90 1015.6
20260510111640 12 167 0.0 3.2 0.00 0.00 0.00 90 1015.5
20260510111419 12 167 0.0 1.6 0.00 0.00 0.00 90 1015.6
20260510111240 12 0 0.0 0.0 0.00 0.00 0.00 90 1015.8
20260510111019 12 0 0.0 0.0 0.00 0.00 0.00 90 1015.8
20260510110819 12 165 0.0 1.6 0.00 0.00 0.00 90 1015.6
20260510110619 12 193 0.0 1.6 0.00 0.00 0.00 90 1015.5
20260510110419 12 208 0.0 1.6 0.00 0.00 0.00 90 1015.6
20260510110219 12 213 0.0 1.6 0.00 0.00 0.00 90 1015.7
20260510110019 12 263 0.0 3.2 0.00 0.00 0.00 90 1015.5
20260510105819 12 268 0.0 4.8 0.00 0.00 0.00 91 1015.3
20260510105619 12 272 0.0 4.8 0.00 0.00 0.00 91 1015.7
20260510105419 12 273 0.0 4.8 0.00 0.00 0.00 92 1015.6
20260510105240 12 273 0.0 4.8 0.00 0.00 0.00 92 1015.6
20260510105040 11 268 0.0 4.8 0.00 0.00 0.00 92 1015.3
20260510104819 11 265 0.0 4.8 0.00 0.00 0.00 92 1015.4
20260510104619 11 268 0.0 1.6 0.00 0.00 0.00 93 1015.5
20260510104419 11 0 0.0 0.0 0.00 0.00 0.00 93 1015.2
20260510104219 11 0 0.0 0.0 0.00 0.00 0.00 93 1015.0
20260510104019 11 0 0.0 0.0 0.00 0.00 0.00 92 1014.9
20260510103820 11 0 0.0 0.0 0.00 0.00 0.00 92 1014.8
20260510103641 11 0 0.0 0.0 0.00 0.00 0.00 92 1014.8
20260510103419 11 0 0.0 0.0 0.00 0.00 0.00 92 1014.7
20260510103220 11 0 0.0 0.0 0.00 0.00 0.00 92 1014.7
20260510103019 11 0 0.0 0.0 0.00 0.00 0.00 92 1014.6
20260510102819 11 0 0.0 0.0 0.00 0.00 0.00 92 1014.6
20260510102619 11 0 0.0 0.0 0.00 0.00 0.00 92 1014.6
20260510102419 11 0 0.0 0.0 0.00 0.00 0.00 92 1014.6
20260510102219 11 0 0.0 0.0 0.00 0.00 0.00 92 1014.6
20260510102040 11 0 0.0 0.0 0.00 0.00 0.00 92 1014.6
20260510101819 11 0 0.0 0.0 0.00 0.00 0.00 92 1014.6
20260510101619 11 0 0.0 0.0 0.00 0.00 0.00 93 1014.5
20260510101419 11 0 0.0 0.0 0.00 0.00 0.00 93 1014.6
20260510101219 11 0 0.0 0.0 0.00 0.00 0.00 93 1014.6
20260510101019 11 0 0.0 0.0 0.00 0.00 0.00 93 1014.6
20260510100819 11 0 0.0 0.0 0.00 0.00 0.00 93 1014.6
20260510100641 11 0 0.0 0.0 0.00 0.00 0.00 93 1014.5
20260510100419 11 0 0.0 0.0 0.00 0.00 0.00 93 1014.5
20260510100240 11 0 0.0 0.0 0.00 0.00 0.00 93 1014.5
20260510100019 11 0 0.0 0.0 0.00 0.00 0.00 93 1014.5
20260510095820 11 0 0.0 0.0 0.00 0.00 0.00 93 1014.5
20260510095619 11 0 0.0 0.0 0.00 0.00 0.00 93 1014.4
20260510095419 11 0 0.0 0.0 0.00 0.00 0.00 93 1014.4
20260510095219 11 0 0.0 0.0 0.00 0.00 0.00 93 1014.4
20260510095019 11 0 0.0 0.0 0.00 0.00 0.00 93 1014.4
20260510094819 11 0 0.0 0.0 0.00 0.00 0.00 93 1014.3
20260510094619 11 0 0.0 0.0 0.00 0.00 0.00 93 1014.2
20260510094440 11 0 0.0 0.0 0.00 0.00 0.00 93 1014.2
20260510094219 11 0 0.0 0.0 0.00 0.00 0.00 93 1014.2
20260510094040 11 0 0.0 0.0 0.00 0.00 0.00 93 1014.2
20260510093841 11 0 0.0 0.0 0.00 0.00 0.00 93 1014.2
20260510093640 11 0 0.0 0.0 0.00 0.00 0.00 93 1014.1
20260510093419 11 0 0.0 0.0 0.00 0.00 0.00 93 1014.1
20260510093219 11 0 0.0 0.0 0.00 0.00 0.00 93 1014.3
20260510093040 11 0 0.0 0.0 0.00 0.00 0.00 93 1014.1
20260510092842 11 0 0.0 0.0 0.00 0.00 0.00 93 1014.0
20260510092619 11 0 0.0 0.0 0.00 0.00 0.00 93 1014.0
20260510092419 11 0 0.0 0.0 0.00 0.00 0.00 93 1014.1
20260510092240 11 0 0.0 0.0 0.00 0.00 0.00 93 1014.0
20260510092019 11 0 0.0 0.0 0.00 0.00 0.00 92 1014.0
20260510091819 11 0 0.0 0.0 0.00 0.00 0.00 92 1014.0
20260510091619 11 0 0.0 0.0 0.00 0.00 0.00 92 1014.0
20260510091419 11 0 0.0 0.0 0.00 0.00 0.00 93 1014.0
20260510091219 11 0 0.0 0.0 0.00 0.00 0.00 93 1014.0
20260510091019 11 0 0.0 0.0 0.00 0.00 0.00 93 1014.0
20260510090820 11 0 0.0 0.0 0.00 0.00 0.00 92 1014.0
20260510090619 11 0 0.0 0.0 0.00 0.00 0.00 92 1013.9
20260510090440 11 0 0.0 0.0 0.00 0.00 0.00 92 1013.9
20260510090219 11 0 0.0 0.0 0.00 0.00 0.00 92 1013.9
20260510090019 11 0 0.0 0.0 0.00 0.00 0.00 92 1013.9
20260510085841 11 0 0.0 0.0 0.00 0.00 0.00 92 1013.8
20260510085619 11 0 0.0 0.0 0.00 0.00 0.00 92 1013.8
20260510085419 11 0 0.0 0.0 0.00 0.00 0.00 92 1013.8
20260510085219 11 0 0.0 0.0 0.00 0.00 0.00 92 1013.8
20260510085040 11 0 0.0 0.0 0.00 0.00 0.00 92 1013.7
20260510084841 11 0 0.0 0.0 0.00 0.00 0.00 92 1013.7
20260510084619 11 0 0.0 0.0 0.00 0.00 0.00 92 1013.6
20260510084419 11 0 0.0 0.0 0.00 0.00 0.00 92 1013.6
20260510084219 11 0 0.0 0.0 0.00 0.00 0.00 92 1013.7
20260510084019 11 0 0.0 0.0 0.00 0.00 0.00 92 1013.7
20260510083819 11 0 0.0 0.0 0.00 0.00 0.00 92 1013.6
20260510083619 11 0 0.0 0.0 0.00 0.00 0.00 92 1013.7
20260510083419 11 0 0.0 0.0 0.00 0.00 0.00 92 1013.7
20260510083219 11 0 0.0 0.0 0.00 0.00 0.00 92 1013.7
20260510083019 12 0 0.0 0.0 0.00 0.00 0.00 92 1013.8
20260510082819 12 0 0.0 0.0 0.00 0.00 0.00 92 1013.8
20260510082640 12 0 0.0 0.0 0.00 0.00 0.00 92 1013.8
20260510082419 12 0 0.0 0.0 0.00 0.00 0.00 92 1013.8
20260510082219 12 0 0.0 0.0 0.00 0.00 0.00 92 1013.8
20260510082020 12 0 0.0 0.0 0.00 0.00 0.00 92 1013.9
20260510081819 12 0 0.0 0.0 0.00 0.00 0.00 92 1013.9
20260510081619 12 0 0.0 0.0 0.00 0.00 0.00 92 1013.9
20260510081419 12 0 0.0 0.0 0.00 0.00 0.00 92 1013.8
20260510081240 12 0 0.0 0.0 0.00 0.00 0.00 91 1013.8
20260510081040 12 0 0.0 0.0 0.00 0.00 0.00 91 1013.7
20260510080820 12 0 0.0 0.0 0.00 0.00 0.00 91 1013.7
20260510080619 12 0 0.0 0.0 0.00 0.00 0.00 91 1013.7
20260510080419 12 0 0.0 0.0 0.00 0.00 0.00 91 1013.7
20260510080219 12 0 0.0 0.0 0.00 0.00 0.00 91 1013.6
20260510080040 12 0 0.0 0.0 0.00 0.00 0.00 91 1013.5
20260510075819 12 0 0.0 0.0 0.00 0.00 0.00 91 1013.5
20260510075640 12 0 0.0 0.0 0.00 0.00 0.00 92 1013.4
20260510075419 12 0 0.0 0.0 0.00 0.00 0.00 92 1013.4
20260510075219 12 0 0.0 0.0 0.00 0.00 0.00 92 1013.4
20260510075019 12 0 0.0 0.0 0.00 0.00 0.00 92 1013.4
20260510074819 12 0 0.0 0.0 0.00 0.00 0.00 92 1013.4
20260510074619 12 0 0.0 0.0 0.00 0.00 0.00 92 1013.3
20260510074419 12 0 0.0 0.0 0.00 0.00 0.00 92 1013.3
20260510074219 12 0 0.0 0.0 0.00 0.00 0.00 92 1013.2
20260510074019 12 0 0.0 0.0 0.00 0.00 0.00 92 1013.1
20260510073819 12 0 0.0 0.0 0.00 0.00 0.00 92 1013.0
20260510073619 12 0 0.0 0.0 0.00 0.00 0.00 92 1013.0
20260510073419 12 0 0.0 0.0 0.00 0.00 0.00 92 1013.0
20260510073219 12 0 0.0 0.0 0.00 0.00 0.00 92 1013.0
20260510073019 12 0 0.0 0.0 0.00 0.00 0.00 92 1013.0
20260510072840 12 0 0.0 0.0 0.00 0.00 0.00 92 1013.0
20260510072619 12 0 0.0 0.0 0.00 0.00 0.00 91 1013.0
20260510072440 12 0 0.0 0.0 0.00 0.00 0.00 91 1012.9
20260510072219 12 0 0.0 0.0 0.00 0.00 0.00 91 1012.9
20260510072019 12 0 0.0 0.0 0.00 0.00 0.00 91 1013.0
20260510071819 12 0 0.0 0.0 0.00 0.00 0.00 91 1013.0
20260510071619 12 0 0.0 0.0 0.00 0.00 0.00 91 1013.0
20260510071419 12 0 0.0 0.0 0.00 0.00 0.00 91 1013.0
20260510071219 12 0 0.0 0.0 0.00 0.00 0.00 91 1013.1
20260510071019 12 0 0.0 0.0 0.00 0.00 0.00 91 1013.0
20260510070819 12 0 0.0 0.0 0.00 0.00 0.00 91 1013.1
20260510070619 12 0 0.0 0.0 0.00 0.00 0.00 91 1013.2
20260510070440 12 0 0.0 0.0 0.00 0.00 0.00 91 1013.2
20260510070219 12 0 0.0 0.0 0.00 0.00 0.00 90 1013.2
20260510070019 12 0 0.0 0.0 0.00 0.00 0.00 90 1013.2
20260510065820 12 0 0.0 0.0 0.00 0.00 0.00 90 1013.2
20260510065619 12 0 0.0 0.0 0.00 0.00 0.00 90 1013.2
20260510065419 12 0 0.0 0.0 0.00 0.00 0.00 90 1013.2
20260510065219 12 0 0.0 0.0 0.00 0.00 0.00 90 1013.2
20260510065019 12 0 0.0 0.0 0.00 0.00 0.00 90 1013.2
20260510064819 12 0 0.0 0.0 0.00 0.00 0.00 90 1013.2
20260510064619 12 0 0.0 0.0 0.00 0.00 0.00 90 1013.2
20260510064419 12 0 0.0 0.0 0.00 0.00 0.00 90 1013.2
20260510064219 12 0 0.0 0.0 0.00 0.00 0.00 90 1013.2
20260510064019 12 0 0.0 0.0 0.00 0.00 0.00 90 1013.1
20260510063819 12 0 0.0 0.0 0.00 0.00 0.00 90 1013.1
20260510063619 12 0 0.0 0.0 0.00 0.00 0.00 90 1013.2
20260510063419 12 0 0.0 0.0 0.00 0.00 0.00 90 1013.1
20260510063219 12 0 0.0 0.0 0.00 0.00 0.00 90 1013.2
20260510063019 12 0 0.0 0.0 0.00 0.00 0.00 90 1013.1
20260510062840 12 0 0.0 0.0 0.00 0.00 0.00 90 1013.1
20260510062619 12 0 0.0 0.0 0.00 0.00 0.00 90 1013.1
20260510062419 12 0 0.0 0.0 0.00 0.00 0.00 90 1013.2
20260510062219 12 0 0.0 0.0 0.00 0.00 0.00 89 1013.2
20260510062019 12 0 0.0 0.0 0.00 0.00 0.00 89 1013.2
20260510061819 12 0 0.0 0.0 0.00 0.00 0.00 89 1013.2
20260510061619 12 0 0.0 0.0 0.00 0.00 0.00 89 1013.2
20260510061419 12 0 0.0 0.0 0.00 0.00 0.00 89 1013.2
20260510061219 12 0 0.0 0.0 0.00 0.00 0.00 89 1013.2
20260510061019 12 0 0.0 0.0 0.00 0.00 0.00 89 1013.2
20260510060819 12 0 0.0 0.0 0.00 0.00 0.00 89 1013.2
20260510060619 12 0 0.0 0.0 0.00 0.00 0.00 89 1013.2
20260510060419 12 0 0.0 0.0 0.00 0.00 0.00 89 1013.2
20260510060219 12 0 0.0 0.0 0.00 0.00 0.00 89 1013.2
20260510060040 12 0 0.0 0.0 0.00 0.00 0.00 89 1013.2
20260510055820 12 0 0.0 0.0 0.00 0.00 0.00 89 1013.2
20260510055640 12 0 0.0 0.0 0.00 0.00 0.00 89 1013.2
20260510055419 12 0 0.0 0.0 0.00 0.00 0.00 89 1013.2
20260510055240 12 0 0.0 0.0 0.00 0.00 0.00 89 1013.2
20260510055019 12 0 0.0 0.0 0.00 0.00 0.00 89 1013.2
20260510054819 12 0 0.0 0.0 0.00 0.00 0.00 89 1013.2
20260510054619 12 0 0.0 0.0 0.00 0.00 0.00 89 1013.1
20260510054419 13 0 0.0 0.0 0.00 0.00 0.00 88 1013.2
20260510054219 13 0 0.0 0.0 0.00 0.00 0.00 88 1013.1
20260510054020 13 0 0.0 0.0 0.00 0.00 0.00 89 1013.1
20260510053840 13 0 0.0 0.0 0.00 0.00 0.00 89 1013.1
20260510053619 13 0 0.0 0.0 0.00 0.00 0.00 89 1013.1
20260510053419 13 0 0.0 0.0 0.00 0.00 0.00 89 1013.1
20260510053219 13 0 0.0 0.0 0.00 0.00 0.00 88 1013.1
20260510053019 13 0 0.0 0.0 0.00 0.00 0.00 88 1013.1
20260510052819 13 0 0.0 0.0 0.00 0.00 0.00 87 1013.1
20260510052640 13 0 0.0 0.0 0.00 0.00 0.00 87 1013.1
20260510052419 13 0 0.0 0.0 0.00 0.00 0.00 87 1013.1
20260510052219 13 0 0.0 0.0 0.00 0.00 0.00 87 1013.1
20260510052019 13 0 0.0 0.0 0.00 0.00 0.00 87 1013.1
20260510051819 13 0 0.0 0.0 0.00 0.00 0.00 87 1013.1
20260510051640 13 0 0.0 0.0 0.00 0.00 0.00 87 1013.1
20260510051419 13 0 0.0 0.0 0.00 0.00 0.00 87 1013.1
20260510051240 13 0 0.0 0.0 0.00 0.00 0.00 87 1013.1
20260510051019 13 0 0.0 0.0 0.00 0.00 0.00 87 1013.1
20260510050819 13 0 0.0 0.0 0.00 0.00 0.00 87 1013.1
20260510050619 13 0 0.0 0.0 0.00 0.00 0.00 87 1013.2
20260510050419 13 0 0.0 0.0 0.00 0.00 0.00 87 1013.2
20260510050220 13 0 0.0 0.0 0.00 0.00 0.00 87 1013.1
20260510050019 13 0 0.0 0.0 0.00 0.00 0.00 87 1013.1
20260510045819 13 0 0.0 0.0 0.00 0.00 0.00 87 1013.1
20260510045619 13 0 0.0 0.0 0.00 0.00 0.00 87 1013.1
20260510045440 13 0 0.0 0.0 0.00 0.00 0.00 87 1013.1
20260510045219 13 0 0.0 0.0 0.00 0.00 0.00 87 1013.1
20260510045040 13 0 0.0 0.0 0.00 0.00 0.00 86 1013.1
20260510044819 13 0 0.0 0.0 0.00 0.00 0.00 86 1013.0
20260510044619 14 0 0.0 0.0 0.00 0.00 0.00 85 1013.0
20260510044420 14 0 0.0 0.0 0.00 0.00 0.00 85 1013.0
20260510044240 14 0 0.0 0.0 0.00 0.00 0.00 85 1013.0
20260510044020 14 0 0.0 0.0 0.00 0.00 0.00 86 1013.0
20260510043819 14 0 0.0 0.0 0.00 0.00 0.00 85 1012.9
20260510043620 14 0 0.0 0.0 0.00 0.00 0.00 85 1012.9
20260510043419 14 0 0.0 0.0 0.00 0.00 0.00 85 1012.9
20260510043219 14 0 0.0 0.0 0.00 0.00 0.00 85 1012.9
20260510043019 14 0 0.0 0.0 0.00 0.00 0.00 85 1012.9
20260510042819 14 0 0.0 0.0 0.00 0.00 0.00 85 1012.9
20260510042640 14 0 0.0 0.0 0.00 0.00 0.00 84 1012.9
20260510042419 14 0 0.0 0.0 0.00 0.00 0.00 84 1012.9
20260510042219 14 0 0.0 0.0 0.00 0.00 0.00 84 1012.9
20260510042020 14 0 0.0 0.0 0.00 0.00 0.00 84 1012.9
20260510041819 14 0 0.0 0.0 0.00 0.00 0.00 84 1012.9
20260510041619 14 0 0.0 0.0 0.00 0.00 0.00 84 1013.0
20260510041421 14 0 0.0 0.0 0.00 0.00 0.00 84 1012.9
20260510041219 14 0 0.0 0.0 0.00 0.00 0.00 83 1013.0
20260510041040 14 0 0.0 0.0 0.00 0.00 0.00 82 1012.9
20260510040840 14 0 0.0 0.0 0.00 0.00 0.00 82 1012.9
20260510040619 14 0 0.0 0.0 0.00 0.00 0.00 81 1013.0
20260510040419 15 0 0.0 0.0 0.00 0.00 0.00 81 1013.0
20260510040219 15 0 0.0 0.0 0.00 0.00 0.00 82 1013.0
20260510040019 15 0 0.0 0.0 0.00 0.00 0.00 81 1013.0
20260510035819 15 0 0.0 0.0 0.00 0.00 0.00 81 1013.0
20260510035619 15 0 0.0 0.0 0.00 0.00 0.00 81 1013.0
20260510035440 15 0 0.0 0.0 0.00 0.00 0.00 81 1013.0
20260510035219 15 0 0.0 0.0 0.00 0.00 0.00 81 1013.1
20260510035040 15 0 0.0 0.0 0.00 0.00 0.00 81 1013.1
20260510034819 15 0 0.0 0.0 0.00 0.00 0.00 82 1013.1
20260510034619 15 0 0.0 0.0 0.00 0.00 0.00 82 1013.1
20260510034440 15 0 0.0 0.0 0.00 0.00 0.00 81 1013.1
20260510034219 15 0 0.0 0.0 0.00 0.00 0.00 81 1013.1
20260510034019 15 0 0.0 0.0 0.00 0.00 0.00 81 1013.0
20260510033819 15 0 0.0 0.0 0.00 0.00 0.00 81 1013.1
20260510033640 15 0 0.0 0.0 0.00 0.00 0.00 81 1013.1
20260510033420 15 0 0.0 0.0 0.00 0.00 0.00 81 1013.1
20260510033219 15 0 0.0 0.0 0.00 0.00 0.00 81 1013.1
20260510033019 15 0 0.0 0.0 0.00 0.00 0.00 81 1013.2
20260510032819 15 0 0.0 0.0 0.00 0.00 0.00 81 1013.1
20260510032619 15 0 0.0 0.0 0.00 0.00 0.00 80 1013.0
20260510032419 15 0 0.0 0.0 0.00 0.00 0.00 79 1013.1
20260510032219 15 0 0.0 0.0 0.00 0.00 0.00 78 1013.1
20260510032019 15 0 0.0 0.0 0.00 0.00 0.00 78 1013.1
20260510031819 15 0 0.0 0.0 0.00 0.00 0.00 78 1013.1
20260510031641 15 0 0.0 0.0 0.00 0.00 0.00 78 1013.1
20260510031419 15 0 0.0 0.0 0.00 0.00 0.00 77 1013.1
20260510031219 16 0 0.0 0.0 0.00 0.00 0.00 77 1013.1
20260510031020 16 0 0.0 0.0 0.00 0.00 0.00 77 1013.1
20260510030821 16 0 0.0 0.0 0.00 0.00 0.00 76 1013.1
20260510030640 16 0 0.0 0.0 0.00 0.00 0.00 76 1013.1
20260510030419 16 0 0.0 0.0 0.00 0.00 0.00 76 1013.1
20260510030219 16 0 0.0 0.0 0.00 0.00 0.00 76 1013.1
20260510030040 16 0 0.0 0.0 0.00 0.00 0.00 75 1013.1
20260510025819 16 0 0.0 0.0 0.00 0.00 0.00 75 1013.1
20260510025619 16 0 0.0 0.0 0.00 0.00 0.00 75 1013.0
20260510025420 16 0 0.0 0.0 0.00 0.00 0.00 75 1013.0
20260510025219 16 0 0.0 0.0 0.00 0.00 0.00 75 1013.0
20260510025019 16 0 0.0 0.0 0.00 0.00 0.00 75 1013.0
20260510024819 16 0 0.0 0.0 0.00 0.00 0.00 75 1013.0
20260510024619 16 0 0.0 0.0 0.00 0.00 0.00 75 1013.0
20260510024419 16 0 0.0 0.0 0.00 0.00 0.00 75 1013.0
20260510024219 16 0 0.0 0.0 0.00 0.00 0.00 76 1013.0
20260510024019 16 0 0.0 0.0 0.00 0.00 0.00 75 1013.1
20260510023819 16 0 0.0 0.0 0.00 0.00 0.00 75 1013.0
20260510023619 16 0 0.0 0.0 0.00 0.00 0.00 75 1013.0
20260510023419 17 0 0.0 0.0 0.00 0.00 0.00 74 1013.0
20260510023219 17 0 0.0 0.0 0.00 0.00 0.00 74 1012.9
20260510023019 17 0 0.0 0.0 0.00 0.00 0.00 73 1012.9
20260510022841 17 0 0.0 0.0 0.00 0.00 0.00 73 1012.9
20260510022619 17 0 0.0 0.0 0.00 0.00 0.00 74 1012.9
20260510022419 17 0 0.0 0.0 0.00 0.00 0.00 74 1012.9
20260510022219 17 0 0.0 0.0 0.00 0.00 0.00 73 1012.9
20260510022040 17 0 0.0 0.0 0.00 0.00 0.00 73 1012.8
20260510021819 17 0 0.0 0.0 0.00 0.00 0.00 72 1012.8
20260510021619 17 0 0.0 0.0 0.00 0.00 0.00 72 1012.7
20260510021419 17 0 0.0 0.0 0.00 0.00 0.00 71 1012.7
20260510021240 17 0 0.0 0.0 0.00 0.00 0.00 72 1012.7
20260510021019 17 0 0.0 0.0 0.00 0.00 0.00 71 1012.6
20260510020819 17 0 0.0 0.0 0.00 0.00 0.00 71 1012.6
20260510020619 17 0 0.0 0.0 0.00 0.00 0.00 71 1012.5
20260510020420 17 0 0.0 0.0 0.00 0.00 0.00 71 1012.5
20260510020220 18 0 0.0 0.0 0.00 0.00 0.00 70 1012.4
20260510020040 18 0 0.0 0.0 0.00 0.00 0.00 70 1012.4
20260510015819 18 0 0.0 0.0 0.00 0.00 0.00 71 1012.3
20260510015620 18 0 0.0 0.0 0.00 0.00 0.00 71 1012.3
20260510015420 18 0 0.0 0.0 0.00 0.00 0.00 71 1012.3
20260510015240 18 0 0.0 0.0 0.00 0.00 0.00 71 1012.2
20260510015020 18 0 0.0 0.0 0.00 0.00 0.00 71 1012.1
20260510014819 18 0 0.0 0.0 0.00 0.00 0.00 70 1012.1
20260510014619 18 0 0.0 0.0 0.00 0.00 0.00 70 1012.1
20260510014442 18 0 0.0 0.0 0.00 0.00 0.00 69 1012.0
20260510014219 18 0 0.0 0.0 0.00 0.00 0.00 69 1012.0
20260510014020 18 0 0.0 0.0 0.00 0.00 0.00 68 1012.0
20260510013819 18 0 0.0 0.0 0.00 0.00 0.00 68 1012.0
20260510013619 18 0 0.0 0.0 0.00 0.00 0.00 68 1011.9
20260510013420 18 0 0.0 0.0 0.00 0.00 0.00 68 1011.9
20260510013240 19 0 0.0 0.0 0.00 0.00 0.00 68 1011.9
20260510013040 19 0 0.0 0.0 0.00 0.00 0.00 68 1011.9
20260510012819 19 0 0.0 0.0 0.00 0.00 0.00 68 1011.9
20260510012619 19 0 0.0 0.0 0.00 0.00 0.00 68 1011.8
20260510012419 19 0 0.0 0.0 0.00 0.00 0.00 67 1011.7
20260510012221 19 0 0.0 0.0 0.00 0.00 0.00 67 1011.7
20260510012040 20 0 0.0 0.0 0.00 0.00 0.00 67 1011.7
20260510011819 20 0 0.0 0.0 0.00 0.00 0.00 67 1011.6
20260510011619 20 0 0.0 0.0 0.00 0.00 0.00 67 1011.6
20260510011419 20 0 0.0 0.0 0.00 0.00 0.00 66 1011.6
20260510011219 20 0 0.0 0.0 0.00 0.00 0.00 66 1011.6
20260510011019 20 0 0.0 0.0 0.00 0.00 0.00 65 1011.6
20260510010819 20 0 0.0 0.0 0.00 0.00 0.00 65 1011.6
20260510010619 20 0 0.0 0.0 0.00 0.00 0.00 65 1011.5
20260510010419 20 0 0.0 0.0 0.00 0.00 0.00 65 1011.5
20260510010220 20 0 0.0 0.0 0.00 0.00 0.00 65 1011.5
20260510010019 20 0 0.0 0.0 0.00 0.00 0.00 65 1011.4
20260510005819 20 0 0.0 0.0 0.00 0.00 0.00 64 1011.4
20260510005619 21 0 0.0 0.0 0.00 0.00 0.00 64 1011.3
20260510005419 21 0 0.0 0.0 0.00 0.00 0.00 64 1011.3
20260510005220 21 0 0.0 0.0 0.00 0.00 0.00 64 1011.3
20260510005019 21 0 0.0 0.0 0.00 0.00 0.00 64 1011.3
20260510004819 21 0 0.0 0.0 0.00 0.00 0.00 63 1011.3
20260510004640 21 0 0.0 0.0 0.00 0.00 0.00 63 1011.2
20260510004442 21 0 0.0 0.0 0.00 0.00 0.00 63 1011.2
20260510004220 21 0 0.0 0.0 0.00 0.00 0.00 63 1011.2
20260510004040 21 0 0.0 0.0 0.00 0.00 0.00 63 1011.1
20260510003820 21 0 0.0 0.0 0.00 0.00 0.00 62 1011.2
20260510003620 21 0 0.0 0.0 0.00 0.00 0.00 62 1011.1
20260510003420 22 0 0.0 0.0 0.00 0.00 0.00 62 1011.1
20260510003219 22 0 0.0 0.0 0.00 0.00 0.00 62 1011.2
20260510003019 22 0 0.0 0.0 0.00 0.00 0.00 62 1011.2
20260510002819 22 0 0.0 0.0 0.00 0.00 0.00 62 1011.1
20260510002619 22 0 0.0 0.0 0.00 0.00 0.00 61 1011.2
20260510002420 22 0 0.0 0.0 0.00 0.00 0.00 61 1011.1
20260510002220 22 0 0.0 0.0 0.00 0.00 0.00 61 1011.1
20260510002041 22 0 0.0 0.0 0.00 0.00 0.00 61 1011.1
20260510001819 22 0 0.0 0.0 0.00 0.00 0.00 61 1011.1
20260510001640 22 0 0.0 0.0 0.00 0.00 0.00 61 1011.0
20260510001440 22 0 0.0 0.0 0.00 0.00 0.00 61 1011.0
20260510001219 22 0 0.0 0.0 0.00 0.00 0.00 61 1010.9
20260510001020 22 221 0.0 1.6 0.00 0.00 0.00 60 1010.9
20260510000819 22 221 0.0 1.6 0.00 0.00 0.00 60 1010.9
20260510000619 23 221 0.0 1.6 0.00 0.00 0.00 60 1010.9
20260510000441 23 221 0.0 1.6 0.00 0.00 0.00 60 1010.9
20260510000220 23 221 0.0 1.6 0.00 0.00 0.00 59 1010.8
20260510000020 23 221 0.0 1.6 0.00 0.00 0.00 59 1010.9
20260509235819 23 221 0.0 1.6 0.00 0.00 0.00 59 1010.9
20260509235641 23 223 0.0 3.2 0.00 0.00 0.00 59 1010.9
20260509235420 23 224 0.0 3.2 0.00 0.00 0.00 58 1010.9
20260509235219 23 224 0.0 3.2 0.00 0.00 0.00 58 1010.9
20260509235042 23 223 0.0 3.2 0.00 0.00 0.00 58 1011.0
20260509234819 23 223 0.0 3.2 0.00 0.00 0.00 57 1011.0
20260509234640 23 223 0.0 3.2 0.00 0.00 0.00 58 1011.0
20260509234419 23 219 0.0 1.6 0.00 0.00 0.00 58 1010.9
20260509234219 23 219 0.0 1.6 0.00 0.00 0.00 58 1010.9
20260509234019 23 219 0.0 1.6 0.00 0.00 0.00 58 1011.0
20260509233840 23 219 0.0 1.6 0.00 0.00 0.00 58 1011.0
20260509233619 23 219 0.0 1.6 0.00 0.00 0.00 58 1011.0
20260509233419 24 217 0.0 1.6 0.00 0.00 0.00 58 1011.0
20260509233219 24 193 0.0 3.2 0.00 0.00 0.00 57 1011.0
20260509233040 24 187 0.0 3.2 0.00 0.00 0.00 56 1010.9
20260509232841 24 191 0.0 3.2 0.00 0.00 0.00 56 1011.0
20260509232620 24 190 0.0 3.2 0.00 0.00 0.00 56 1011.0
20260509232419 24 208 0.0 3.2 0.00 0.00 0.00 57 1011.0
20260509232219 24 227 0.0 1.6 0.00 0.00 0.00 57 1011.0
20260509232020 24 227 0.0 1.6 0.00 0.00 0.00 56 1011.0
20260509231820 24 227 0.0 1.6 0.00 0.00 0.00 56 1011.0
20260509231619 24 226 0.0 1.6 0.00 0.00 0.00 56 1010.9
20260509231419 24 223 0.0 3.2 0.00 0.00 0.00 58 1011.0
20260509231240 24 224 0.0 3.2 0.00 0.00 0.00 57 1011.0
20260509231019 25 224 0.0 3.2 0.00 0.00 0.00 57 1010.9
20260509230840 25 222 0.0 3.2 0.00 0.00 0.00 56 1010.9
20260509230619 25 217 0.0 3.2 0.00 0.00 0.00 56 1011.0
20260509230419 25 215 0.0 3.2 0.00 0.00 0.00 57 1011.0
20260509230219 25 214 0.0 3.2 0.00 0.00 0.00 56 1011.0
20260509230019 25 214 0.0 3.2 0.00 0.00 0.00 56 1010.9
20260509225840 25 213 0.0 3.2 0.00 0.00 0.00 56 1011.0
20260509225619 25 219 0.0 1.6 0.00 0.00 0.00 57 1011.0
20260509225419 25 224 0.0 1.6 0.00 0.00 0.00 57 1010.9
20260509225219 25 231 0.0 1.6 0.00 0.00 0.00 57 1011.0
20260509225019 25 271 0.0 1.6 0.00 0.00 0.00 56 1010.9
20260509224819 25 271 0.0 1.6 0.00 0.00 0.00 55 1010.9
20260509224619 25 268 0.0 3.2 0.00 0.00 0.00 55 1010.9
20260509224419 25 268 0.0 3.2 0.00 0.00 0.00 56 1010.9
20260509224219 25 254 0.0 3.2 0.00 0.00 0.00 56 1010.9
20260509224019 25 247 0.0 3.2 0.00 0.00 0.00 56 1010.9
20260509223840 25 237 0.0 3.2 0.00 0.00 0.00 56 1010.9
20260509223619 25 228 0.0 3.2 0.00 0.00 0.00 56 1010.8
20260509223419 25 227 0.0 3.2 0.00 0.00 0.00 57 1010.7
20260509223219 25 225 0.0 3.2 0.00 0.00 0.00 57 1010.8
20260509223019 25 223 0.0 3.2 0.00 0.00 0.00 56 1010.8
20260509222820 25 219 0.0 3.2 0.00 0.00 0.00 57 1010.8
20260509222640 25 221 0.0 3.2 0.00 0.00 0.00 56 1010.7
20260509222421 25 224 0.0 3.2 0.00 0.00 0.00 55 1010.7
20260509222242 25 235 0.0 3.2 0.00 0.00 0.00 56 1010.7
20260509222020 25 238 0.0 3.2 0.00 0.00 0.00 55 1010.6
20260509221819 25 244 0.0 3.2 0.00 0.00 0.00 54 1010.6
20260509221640 25 250 0.0 3.2 0.00 0.00 0.00 55 1010.6
20260509221440 25 271 0.0 3.2 0.00 0.00 0.00 54 1010.6
20260509221219 25 252 0.0 1.6 0.00 0.00 0.00 54 1010.6
20260509221019 25 282 0.0 8.0 0.00 0.00 0.00 56 1010.6
20260509220819 25 286 0.0 8.0 0.00 0.00 0.00 57 1010.5
20260509220619 25 328 0.0 8.0 0.00 0.00 0.00 57 1010.6
20260509220419 25 328 0.0 8.0 0.00 0.00 0.00 54 1010.6
20260509220220 25 329 0.0 8.0 0.00 0.00 0.00 55 1010.5
20260509220019 25 20 0.0 3.2 0.00 0.00 0.00 55 1010.5
20260509215841 25 31 0.0 3.2 0.00 0.00 0.00 56 1010.5
20260509215619 25 0 0.0 0.0 0.00 0.00 0.00 56 1010.5
20260509215419 25 0 0.0 0.0 0.00 0.00 0.00 56 1010.5
20260509215219 25 224 0.0 4.8 0.00 0.00 0.00 56 1010.5
20260509215019 25 225 0.0 4.8 0.00 0.00 0.00 56 1010.5
20260509214819 25 227 0.0 4.8 0.00 0.00 0.00 58 1010.5
20260509214619 25 227 0.0 4.8 0.00 0.00 0.00 59 1010.5
20260509214420 25 210 0.0 4.8 0.00 0.00 0.00 59 1010.5
20260509214240 25 201 0.0 3.2 0.00 0.00 0.00 59 1010.5
20260509214040 25 189 0.0 3.2 0.00 0.00 0.00 59 1010.5
20260509213820 25 178 0.0 3.2 0.00 0.00 0.00 59 1010.4
20260509213620 25 182 0.0 3.2 0.00 0.00 0.00 59 1010.5
20260509213419 25 198 0.0 4.8 0.00 0.00 0.00 59 1010.4
20260509213219 25 206 0.0 4.8 0.00 0.00 0.00 58 1010.4
20260509213040 25 205 0.0 4.8 0.00 0.00 0.00 57 1010.5
20260509212840 25 205 0.0 4.8 0.00 0.00 0.00 57 1010.5
20260509212641 25 205 0.0 4.8 0.00 0.00 0.00 57 1010.5
20260509212419 25 211 0.0 4.8 0.00 0.00 0.00 57 1010.5
20260509212241 25 211 1.6 4.8 0.00 0.00 0.00 59 1010.5
20260509212019 25 217 1.6 4.8 0.00 0.00 0.00 59 1010.5
20260509211820 25 218 1.6 4.8 0.00 0.00 0.00 59 1010.5
20260509211619 25 218 1.6 4.8 0.00 0.00 0.00 58 1010.5
20260509211419 25 217 0.0 4.8 0.00 0.00 0.00 57 1010.5
20260509211219 25 217 0.0 3.2 0.00 0.00 0.00 58 1010.4
20260509211020 25 216 0.0 3.2 0.00 0.00 0.00 57 1010.4
20260509210819 25 208 0.0 3.2 0.00 0.00 0.00 56 1010.4
20260509210619 25 47 0.0 3.2 0.00 0.00 0.00 56 1010.4
20260509210419 25 332 0.0 1.6 0.00 0.00 0.00 57 1010.5
20260509210241 25 287 0.0 4.8 0.00 0.00 0.00 56 1010.4
20260509210019 25 288 0.0 4.8 0.00 0.00 0.00 55 1010.4
20260509205840 25 286 0.0 4.8 0.00 0.00 0.00 54 1010.4
20260509205619 25 287 0.0 4.8 0.00 0.00 0.00 56 1010.4
20260509205420 25 319 0.0 4.8 0.00 0.00 0.00 56 1010.5
20260509205219 25 344 0.0 4.8 0.00 0.00 0.00 57 1010.5
20260509205019 25 334 0.0 4.8 0.00 0.00 0.00 57 1010.5
20260509204840 25 295 0.0 4.8 0.00 0.00 0.00 57 1010.6
20260509204620 25 283 1.6 4.8 0.00 0.00 0.00 56 1010.5
20260509204420 25 241 1.6 4.8 0.00 0.00 0.00 55 1010.5
20260509204219 25 243 1.6 4.8 0.00 0.00 0.00 56 1010.6
20260509204019 25 245 1.6 4.8 0.00 0.00 0.00 57 1010.6
20260509203819 25 254 1.6 4.8 0.00 0.00 0.00 57 1010.7
20260509203620 25 255 0.0 4.8 0.00 0.00 0.00 55 1010.7
20260509203420 25 340 0.0 4.8 0.00 0.00 0.00 55 1010.7
20260509203241 25 46 0.0 4.8 0.00 0.00 0.00 57 1010.7
20260509203041 25 50 0.0 4.8 0.00 0.00 0.00 55 1010.7
20260509202840 25 47 0.0 4.8 0.00 0.00 0.00 56 1010.7
20260509202619 25 207 1.6 4.8 0.00 0.00 0.00 56 1010.8
20260509202420 25 244 1.6 3.2 0.00 0.00 0.00 56 1010.8
20260509202219 25 263 1.6 3.2 0.00 0.00 0.00 56 1010.9
20260509202019 25 258 1.6 3.2 0.00 0.00 0.00 57 1010.9
20260509201819 25 253 1.6 4.8 0.00 0.00 0.00 56 1010.9
20260509201640 25 247 1.6 8.0 0.00 0.00 0.00 56 1010.9
20260509201441 25 247 1.6 8.0 0.00 0.00 0.00 56 1011.0
20260509201219 25 232 1.6 8.0 0.00 0.00 0.00 57 1011.0
20260509201042 25 219 1.6 8.0 0.00 0.00 0.00 56 1011.0
20260509200819 25 206 1.6 8.0 0.00 0.00 0.00 57 1011.1
20260509200620 25 117 1.6 4.8 0.00 0.00 0.00 60 1011.1
20260509200440 25 97 1.6 9.7 0.00 0.00 0.00 59 1011.1
20260509200219 25 81 0.0 9.7 0.00 0.00 0.00 57 1011.1
20260509200019 25 82 0.0 9.7 0.00 0.00 0.00 57 1011.1
20260509195841 25 180 0.0 9.7 0.00 0.00 0.00 56 1011.2
20260509195641 25 202 0.0 9.7 0.00 0.00 0.00 57 1011.2
20260509195419 25 217 0.0 4.8 0.00 0.00 0.00 57 1011.2
20260509195219 25 212 0.0 4.8 0.00 0.00 0.00 58 1011.3
20260509195019 25 216 0.0 4.8 0.00 0.00 0.00 57 1011.3
20260509194840 25 225 0.0 4.8 0.00 0.00 0.00 58 1011.3
20260509194640 25 248 1.6 4.8 0.00 0.00 0.00 57 1011.3
20260509194441 25 248 1.6 4.8 0.00 0.00 0.00 58 1011.3
20260509194220 25 248 1.6 4.8 0.00 0.00 0.00 58 1011.3
20260509194020 25 232 1.6 3.2 0.00 0.00 0.00 58 1011.3
20260509193841 25 232 1.6 6.4 0.00 0.00 0.00 58 1011.3
20260509193620 25 245 1.6 6.4 0.00 0.00 0.00 60 1011.4
20260509193419 24 248 0.0 6.4 0.00 0.00 0.00 61 1011.4
20260509193219 24 248 0.0 6.4 0.00 0.00 0.00 60 1011.3
20260509193019 25 257 0.0 6.4 0.00 0.00 0.00 59 1011.3
20260509192820 24 292 0.0 6.4 0.00 0.00 0.00 61 1011.4
20260509192619 25 360 0.0 3.2 0.00 0.00 0.00 61 1011.3
20260509192419 24 45 0.0 3.2 0.00 0.00 0.00 60 1011.3
20260509192219 24 33 0.0 3.2 0.00 0.00 0.00 59 1011.3
20260509192019 24 272 0.0 1.6 0.00 0.00 0.00 61 1011.2
20260509191819 24 333 1.6 6.4 0.00 0.00 0.00 62 1011.2
20260509191619 24 317 1.6 6.4 0.00 0.00 0.00 61 1011.2
20260509191419 24 235 1.6 6.4 0.00 0.00 0.00 62 1011.3
20260509191219 24 223 1.6 6.4 0.00 0.00 0.00 62 1011.4
20260509191019 24 215 1.6 6.4 0.00 0.00 0.00 62 1011.3
20260509190820 24 206 1.6 6.4 0.00 0.00 0.00 63 1011.3
20260509190619 24 186 0.0 6.4 0.00 0.00 0.00 62 1011.2
20260509190419 24 171 0.0 6.4 0.00 0.00 0.00 61 1011.2
20260509190221 24 155 0.0 4.8 0.00 0.00 0.00 60 1011.2
20260509190019 24 108 1.6 3.2 0.00 0.00 0.00 62 1011.2
20260509185820 24 140 1.6 4.8 0.00 0.00 0.00 62 1011.2
20260509185620 24 222 1.6 6.4 0.00 0.00 0.00 63 1011.2
20260509185420 24 224 1.6 6.4 0.00 0.00 0.00 63 1011.2
20260509185219 23 223 1.6 6.4 0.00 0.00 0.00 62 1011.3
20260509185020 23 222 1.6 6.4 0.00 0.00 0.00 61 1011.3
20260509184820 23 222 1.6 6.4 0.00 0.00 0.00 61 1011.2
20260509184620 23 221 1.6 6.4 0.00 0.00 0.00 61 1011.2
20260509184419 23 220 1.6 6.4 0.00 0.00 0.00 63 1011.2
20260509184219 23 222 1.6 6.4 0.00 0.00 0.00 61 1011.1
20260509184019 23 234 0.0 4.8 0.00 0.00 0.00 63 1011.1
20260509183819 23 240 0.0 4.8 0.00 0.00 0.00 61 1011.1
20260509183620 23 245 0.0 4.8 0.00 0.00 0.00 61 1011.1
20260509183420 23 255 0.0 4.8 0.00 0.00 0.00 62 1011.1
20260509183242 23 259 0.0 4.8 0.00 0.00 0.00 61 1011.1
20260509183040 23 236 0.0 4.8 0.00 0.00 0.00 63 1011.0
20260509182820 23 222 0.0 4.8 0.00 0.00 0.00 63 1011.0
20260509182619 23 211 0.0 4.8 0.00 0.00 0.00 64 1011.0
20260509182420 23 191 0.0 4.8 0.00 0.00 0.00 63 1011.0
20260509182219 23 180 0.0 4.8 0.00 0.00 0.00 64 1011.0
20260509182020 23 146 0.0 1.6 0.00 0.00 0.00 65 1011.0
20260509181841 23 136 1.6 1.6 0.00 0.00 0.00 64 1011.0
20260509181620 23 209 1.6 3.2 0.00 0.00 0.00 66 1011.1
20260509181419 23 263 1.6 3.2 0.00 0.00 0.00 66 1011.1
20260509181219 23 278 1.6 8.0 0.00 0.00 0.00 65 1011.1
20260509181019 23 281 1.6 8.0 0.00 0.00 0.00 63 1011.1
20260509180819 23 278 0.0 8.0 0.00 0.00 0.00 64 1011.1
20260509180619 23 266 0.0 8.0 0.00 0.00 0.00 64 1011.2
20260509180419 23 258 0.0 8.0 0.00 0.00 0.00 65 1011.2
20260509180241 23 237 0.0 4.8 0.00 0.00 0.00 64 1011.2
20260509180020 23 233 0.0 4.8 0.00 0.00 0.00 66 1011.2
20260509175820 23 228 0.0 4.8 0.00 0.00 0.00 65 1011.2
20260509175619 23 336 0.0 4.8 0.00 0.00 0.00 65 1011.2
20260509175420 23 357 0.0 3.2 0.00 0.00 0.00 65 1011.2
20260509175240 23 355 0.0 3.2 0.00 0.00 0.00 65 1011.2
20260509175020 23 322 0.0 3.2 0.00 0.00 0.00 65 1011.2
20260509174819 23 262 0.0 3.2 0.00 0.00 0.00 64 1011.1
20260509174619 23 231 0.0 3.2 0.00 0.00 0.00 63 1011.2
20260509174441 23 224 0.0 3.2 0.00 0.00 0.00 63 1011.2
20260509174220 23 224 0.0 3.2 0.00 0.00 0.00 63 1011.2
20260509174020 23 229 0.0 3.2 0.00 0.00 0.00 65 1011.3
20260509173841 23 230 1.6 1.6 0.00 0.00 0.00 64 1011.2
20260509173619 23 248 1.6 3.2 0.00 0.00 0.00 65 1011.3
20260509173420 23 60 1.6 8.0 0.00 0.00 0.00 66 1011.3
20260509173220 22 58 1.6 8.0 0.00 0.00 0.00 65 1011.3
20260509173019 23 63 1.6 8.0 0.00 0.00 0.00 65 1011.3
20260509172840 23 63 1.6 8.0 0.00 0.00 0.00 65 1011.3
20260509172620 23 68 1.6 8.0 0.00 0.00 0.00 65 1011.3
20260509172441 23 108 1.6 6.4 0.00 0.00 0.00 67 1011.3
20260509172219 23 212 1.6 4.8 0.00 0.00 0.00 67 1011.4
20260509172019 23 224 1.6 4.8 0.00 0.00 0.00 66 1011.4
20260509171819 23 227 0.0 4.8 0.00 0.00 0.00 66 1011.4
20260509171641 23 228 0.0 4.8 0.00 0.00 0.00 66 1011.4
20260509171420 23 233 0.0 4.8 0.00 0.00 0.00 65 1011.4
20260509171219 23 254 0.0 1.6 0.00 0.00 0.00 66 1011.4
20260509171020 23 64 1.6 3.2 0.00 0.00 0.00 65 1011.4
20260509170820 23 54 1.6 3.2 0.00 0.00 0.00 65 1011.4
20260509170620 23 78 1.6 3.2 0.00 0.00 0.00 64 1011.4
20260509170421 23 174 1.6 3.2 0.00 0.00 0.00 65 1011.4
20260509170220 23 216 1.6 3.2 0.00 0.00 0.00 62 1011.4
20260509170020 23 227 1.6 3.2 0.00 0.00 0.00 63 1011.5
20260509165842 23 221 1.6 3.2 0.00 0.00 0.00 64 1011.4
20260509165640 23 218 1.6 3.2 0.00 0.00 0.00 64 1011.5
20260509165420 23 221 1.6 3.2 0.00 0.00 0.00 66 1011.5
20260509165220 23 229 1.6 3.2 0.00 0.00 0.00 66 1011.5
20260509165020 23 235 1.6 3.2 0.00 0.00 0.00 66 1011.5
20260509164819 23 241 1.6 3.2 0.00 0.00 0.00 66 1011.5
20260509164620 23 260 1.6 4.8 0.00 0.00 0.00 65 1011.5
20260509164440 23 271 1.6 4.8 0.00 0.00 0.00 65 1011.5
20260509164240 23 278 1.6 4.8 0.00 0.00 0.00 65 1011.5
20260509164019 23 288 1.6 4.8 0.00 0.00 0.00 64 1011.5
20260509163820 23 284 1.6 4.8 0.00 0.00 0.00 64 1011.5
20260509163641 23 328 0.0 4.8 0.00 0.00 0.00 65 1011.5
20260509163419 23 338 0.0 4.8 0.00 0.00 0.00 64 1011.5
20260509163241 23 329 0.0 4.8 0.00 0.00 0.00 66 1011.5
20260509163019 23 260 0.0 3.2 0.00 0.00 0.00 65 1011.4
20260509162819 23 237 1.6 3.2 0.00 0.00 0.00 63 1011.5
20260509162621 23 240 1.6 4.8 0.00 0.00 0.00 65 1011.5
20260509162419 23 238 1.6 4.8 0.00 0.00 0.00 64 1011.5
20260509162219 23 248 1.6 4.8 0.00 0.00 0.00 67 1011.5
20260509162020 23 250 1.6 4.8 0.00 0.00 0.00 67 1011.5
20260509161819 23 259 0.0 4.8 0.00 0.00 0.00 67 1011.5
20260509161640 23 258 0.0 4.8 0.00 0.00 0.00 67 1011.5
20260509161419 23 269 0.0 4.8 0.00 0.00 0.00 67 1011.4
20260509161220 23 262 0.0 3.2 0.00 0.00 0.00 68 1011.5
20260509161020 22 279 0.0 3.2 0.00 0.00 0.00 67 1011.5
20260509160841 22 290 0.0 3.2 0.00 0.00 0.00 68 1011.5
20260509160620 22 282 0.0 3.2 0.00 0.00 0.00 69 1011.5
20260509160420 22 284 0.0 3.2 0.00 0.00 0.00 68 1011.5
20260509160220 22 298 1.6 3.2 0.00 0.00 0.00 67 1011.5
20260509160019 22 288 1.6 3.2 0.00 0.00 0.00 68 1011.4
20260509155820 22 154 1.6 3.2 0.00 0.00 0.00 68 1011.4
20260509155620 22 106 1.6 3.2 0.00 0.00 0.00 68 1011.4
20260509155419 22 266 1.6 3.2 0.00 0.00 0.00 68 1011.3
20260509155219 22 240 1.6 3.2 0.00 0.00 0.00 69 1011.4
20260509155020 22 254 1.6 3.2 0.00 0.00 0.00 68 1011.4
20260509154821 22 258 1.6 3.2 0.00 0.00 0.00 69 1011.4
20260509154620 22 258 1.6 3.2 0.00 0.00 0.00 69 1011.4
20260509154420 22 256 1.6 3.2 0.00 0.00 0.00 69 1011.4
20260509154220 22 260 1.6 3.2 0.00 0.00 0.00 68 1011.3
20260509154021 22 267 1.6 4.8 0.00 0.00 0.00 70 1011.3
20260509153820 22 273 1.6 4.8 0.00 0.00 0.00 70 1011.3
20260509153619 22 276 1.6 4.8 0.00 0.00 0.00 70 1011.3
20260509153420 22 274 1.6 4.8 0.00 0.00 0.00 70 1011.3
20260509153220 22 279 1.6 4.8 0.00 0.00 0.00 70 1011.3
20260509153021 22 296 1.6 4.8 0.00 0.00 0.00 71 1011.3
20260509152841 22 298 1.6 4.8 0.00 0.00 0.00 71 1011.3
20260509152620 22 289 1.6 6.4 0.00 0.00 0.00 71 1011.3
20260509152420 22 294 1.6 6.4 0.00 0.00 0.00 71 1011.3
20260509152220 21 291 1.6 6.4 0.00 0.00 0.00 72 1011.2
20260509152020 21 267 1.6 6.4 0.00 0.00 0.00 70 1011.2
20260509151820 22 279 1.6 6.4 0.00 0.00 0.00 69 1011.3